This is the latest recevied weather packets stored in our database for station/object HS5NMF. If no packets are shown the sender has not sent any weather packets the latest 10 day(s).
| Time | Temp. | Humidity | Pressure | Rain* | Wind** | Luminosity | Snow |
|---|---|---|---|---|---|---|---|
| 1778197920 | 29.44° C | 86% | 978 hPa | - | - | 0 W/m² | - |
| 1778197596 | 28.89° C | 89% | 978 hPa | - | - | 0 W/m² | - |
| 1778197272 | 28.89° C | 88% | 977 hPa | - | - | 0 W/m² | - |
| 1778196951 | 28.89° C | 87% | 977 hPa | - | - | 0 W/m² | - |
| 1778196623 | 28.89° C | 87% | 977 hPa | - | - | 0 W/m² | - |
| 1778196297 | 28.89° C | 88% | 977 hPa | - | - | 0 W/m² | - |
| 1778195973 | 28.33° C | 89% | 977 hPa | - | - | 0 W/m² | - |
| 1778195651 | 28.33° C | 88% | 977 hPa | - | - | 0 W/m² | - |
| 1778195325 | 28.89° C | 88% | 977 hPa | - | - | 0 W/m² | - |
| 1778195001 | 28.89° C | 89% | 977 hPa | - | - | 0 W/m² | - |
| 1778194674 | 28.33° C | 91% | 977 hPa | - | - | 0 W/m² | - |
| 1778194349 | 28.33° C | 89% | 977 hPa | - | - | 0 W/m² | - |
| 1778194023 | 28.33° C | 92% | 977 hPa | - | - | 0 W/m² | - |
| 1778193696 | 28.33° C | 91% | 977 hPa | - | - | 0 W/m² | - |
| 1778193373 | 28.33° C | 89% | 977 hPa | - | - | 0 W/m² | - |
| 1778193046 | 28.33° C | 90% | 977 hPa | - | - | 0 W/m² | - |
| 1778192721 | 28.33° C | 90% | 977 hPa | - | - | 0 W/m² | - |
| 1778192396 | 28.33° C | 90% | 977 hPa | - | - | 0 W/m² | - |
| 1778192071 | 27.78° C | 91% | 977 hPa | - | - | 0 W/m² | - |
| 1778191747 | 28.33° C | 92% | 977 hPa | - | - | 0 W/m² | - |
| 1778191420 | 28.33° C | 88% | 977 hPa | - | - | 0 W/m² | - |
| 1778191094 | 28.33° C | 90% | 977 hPa | - | - | 0 W/m² | - |
| 1778190769 | 28.33° C | 90% | 977 hPa | - | - | 0 W/m² | - |
| 1778190447 | 28.89° C | 86% | 977 hPa | - | - | 0 W/m² | - |
| 1778190118 | 28.89° C | 86% | 977 hPa | - | - | 0 W/m² | - |
* Rain since midnight (hover to see other rain measurements)
** Current wind speed in m/s (hover to see current wind gust speed)